When you browse on this site, cookies collect data to enhance your experience and personalize the content and advertising you see.
Visit our Privacy Policy to learn more. By continuing to use the site, you agree to this use of cookies and data.
  • In United Kingdom
  • List of Countries
  • For 7 days
  • Water Temperature
  • Satellite Maps
  • Weather Map
  • Weather Widgets
  • user-avatar
    Login

    Hourly Weather Misilmeri

    Today, 26 May, Sunday

    Time Temperature Precipitation Wind Pressure Humidity
    00:00 +18°C° 0 mm 3 mps 746 mmHg 52%
    01:00 +18°C° 0 mm 2 mps 745 mmHg 47%
    02:00 +18°C° 0.1 mm 2 mps 745 mmHg 51%
    03:00 +18°C° 0.1 mm 2 mps 745 mmHg 55%
    04:00 +18°C° 0.1 mm 2 mps 745 mmHg 59%
    05:00 +18°C° 0.3 mm 2 mps 744 mmHg 63%
    06:00 +19°C° 0.3 mm 1 mps 744 mmHg 67%
    07:00 +19°C° 0.3 mm 1 mps 744 mmHg 71%
    08:00 +19°C° 0.4 mm 1 mps 744 mmHg 74%
    09:00 +19°C° 0.4 mm 1 mps 744 mmHg 76%
    10:00 +18°C° 0.4 mm 2 mps 744 mmHg 79%
    11:00 +19°C° 0.5 mm 2 mps 744 mmHg 78%
    12:00 +20°C° 0.5 mm 3 mps 744 mmHg 78%
    13:00 +20°C° 0.5 mm 3 mps 743 mmHg 77%
    14:00 +21°C° 0.1 mm 3 mps 743 mmHg 75%
    15:00 +21°C° 0.1 mm 3 mps 742 mmHg 73%
    16:00 +23°C° 0.1 mm 2 mps 742 mmHg 71%
    17:00 +21°C° 0.5 mm 2 mps 742 mmHg 78%
    18:00 +19°C° 0.5 mm 2 mps 742 mmHg 84%
    19:00 +19°C° 0.5 mm 1 mps 741 mmHg 90%
    20:00 +19°C° 0.7 mm 1 mps 741 mmHg 91%
    21:00 +19°C° 0.7 mm 1 mps 742 mmHg 92%
    22:00 +19°C° 0.7 mm 1 mps 742 mmHg 93%
    23:00 +19°C° 0.5 mm 1 mps 741 mmHg 93%

    Tomorrow, 27 May, Monday

    Time Temperature Precipitation Wind Pressure Humidity
    00:00 +19°C° 0.5 mm 1 mps 741 mmHg 94%
    01:00 +19°C° 0.5 mm 1 mps 741 mmHg 94%
    02:00 +19°C° 1.3 mm 1 mps 741 mmHg 95%
    03:00 +19°C° 1.3 mm 1 mps 740 mmHg 95%
    04:00 +19°C° 1.3 mm 1 mps 740 mmHg 95%
    05:00 +18°C° 0.7 mm 2 mps 740 mmHg 93%
    06:00 +18°C° 0.7 mm 2 mps 740 mmHg 91%
    07:00 +19°C° 0.7 mm 2 mps 740 mmHg 89%
    08:00 +20°C° 0 mm 3 mps 741 mmHg 82%
    09:00 +20°C° 0 mm 3 mps 741 mmHg 76%
    10:00 +21°C° 0 mm 3 mps 741 mmHg 69%
    11:00 +21°C° 0.1 mm 4 mps 742 mmHg 70%
    12:00 +21°C° 0.1 mm 4 mps 742 mmHg 71%
    13:00 +21°C° 0.1 mm 4 mps 742 mmHg 72%
    14:00 +20°C° 0.1 mm 4 mps 742 mmHg 73%
    15:00 +20°C° 0.1 mm 5 mps 742 mmHg 74%
    16:00 +20°C° 0.1 mm 5 mps 742 mmHg 75%
    17:00 +19°C° 0.3 mm 5 mps 742 mmHg 80%
    18:00 +18°C° 0.3 mm 4 mps 742 mmHg 85%
    19:00 +18°C° 0.3 mm 4 mps 743 mmHg 90%
    20:00 +18°C° 0.2 mm 4 mps 743 mmHg 91%
    21:00 +17°C° 0.2 mm 3 mps 743 mmHg 93%
    22:00 +17°C° 0.2 mm 3 mps 744 mmHg 94%
    23:00 +17°C° 0 mm 3 mps 744 mmHg 94%

    Day after tomorrow, 28 May, Tuesday

    Time Temperature Precipitation Wind Pressure Humidity
    00:00 +17°C° 0 mm 3 mps 744 mmHg 94%
    01:00 +17°C° 0 mm 3 mps 744 mmHg 94%
    02:00 +17°C° 0.1 mm 3 mps 744 mmHg 94%
    03:00 +17°C° 0.1 mm 3 mps 744 mmHg 94%
    04:00 +17°C° 0.1 mm 3 mps 744 mmHg 94%
    05:00 +17°C° 0.1 mm 3 mps 744 mmHg 92%
    06:00 +18°C° 0.1 mm 3 mps 745 mmHg 91%
    07:00 +18°C° 0.1 mm 3 mps 745 mmHg 90%
    08:00 +19°C° 0.1 mm 3 mps 746 mmHg 85%
    09:00 +20°C° 0.1 mm 3 mps 746 mmHg 80%
    10:00 +21°C° 0.1 mm 4 mps 747 mmHg 75%
    11:00 +22°C° 0 mm 4 mps 747 mmHg 71%
    12:00 +23°C° 0 mm 4 mps 747 mmHg 67%
    13:00 +25°C° 0 mm 5 mps 747 mmHg 64%
    14:00 +23°C° 0 mm 5 mps 747 mmHg 64%
    15:00 +23°C° 0 mm 5 mps 747 mmHg 65%
    16:00 +22°C° 0 mm 6 mps 748 mmHg 65%
    17:00 +21°C° 0 mm 5 mps 748 mmHg 68%
    18:00 +20°C° 0 mm 4 mps 748 mmHg 72%
    19:00 +19°C° 0 mm 3 mps 748 mmHg 75%
    20:00 +19°C° 0 mm 3 mps 748 mmHg 76%
    21:00 +18°C° 0 mm 3 mps 748 mmHg 77%
    22:00 +17°C° 0 mm 3 mps 749 mmHg 79%
    23:00 +17°C° 0 mm 3 mps 749 mmHg 80%

    29 May, Wednesday

    Time Temperature Precipitation Wind Pressure Humidity
    00:00 +17°C° 0 mm 3 mps 749 mmHg 81%
    01:00 +16°C° 0 mm 3 mps 748 mmHg 83%
    02:00 +16°C° 0 mm 3 mps 748 mmHg 84%
    03:00 +16°C° 0 mm 3 mps 748 mmHg 86%
    04:00 +16°C° 0 mm 3 mps 748 mmHg 87%
    05:00 +17°C° 0 mm 3 mps 748 mmHg 81%
    06:00 +19°C° 0 mm 3 mps 749 mmHg 76%
    07:00 +20°C° 0 mm 3 mps 749 mmHg 70%
    08:00 +21°C° 0 mm 3 mps 749 mmHg 64%
    09:00 +24°C° 0 mm 3 mps 750 mmHg 59%
    10:00 +26°C° 0 mm 3 mps 750 mmHg 54%
    11:00 +26°C° 0 mm 4 mps 750 mmHg 51%
    12:00 +27°C° 0 mm 4 mps 750 mmHg 49%
    13:00 +28°C° 0 mm 4 mps 750 mmHg 47%
    14:00 +27°C° 0 mm 4 mps 750 mmHg 48%
    15:00 +27°C° 0 mm 5 mps 750 mmHg 48%
    16:00 +26°C° 0 mm 5 mps 750 mmHg 49%
    17:00 +25°C° 0 mm 4 mps 750 mmHg 55%
    18:00 +22°C° 0 mm 3 mps 750 mmHg 61%
    19:00 +20°C° 0 mm 2 mps 750 mmHg 67%
    20:00 +19°C° 0 mm 2 mps 750 mmHg 68%
    21:00 +19°C° 0 mm 2 mps 750 mmHg 69%
    22:00 +19°C° 0 mm 1 mps 751 mmHg 70%
    23:00 +18°C° 0 mm 2 mps 750 mmHg 71%

    30 May, Thursday

    Time Temperature Precipitation Wind Pressure Humidity
    00:00 +17°C° 0 mm 2 mps 750 mmHg 72%
    01:00 +16°C° 0 mm 2 mps 750 mmHg 74%
    02:00 +16°C° 0 mm 3 mps 750 mmHg 75%
    03:00 +16°C° 0 mm 3 mps 750 mmHg 77%
    04:00 +14°C° 0 mm 3 mps 750 mmHg 79%
    05:00 +16°C° 0 mm 3 mps 751 mmHg 75%
    06:00 +17°C° 0 mm 3 mps 751 mmHg 70%
    07:00 +18°C° 0 mm 3 mps 751 mmHg 65%
    08:00 +19°C° 0 mm 3 mps 752 mmHg 60%
    09:00 +21°C° 0 mm 3 mps 752 mmHg 54%
    10:00 +22°C° 0 mm 3 mps 752 mmHg 49%
    11:00 +22°C° 0 mm 4 mps 752 mmHg 48%
    12:00 +22°C° 0 mm 4 mps 752 mmHg 46%
    13:00 +23°C° 0 mm 4 mps 752 mmHg 44%
    14:00 +23°C° 0 mm 4 mps 752 mmHg 46%
    15:00 +22°C° 0 mm 4 mps 752 mmHg 48%
    16:00 +22°C° 0 mm 4 mps 752 mmHg 49%
    17:00 +20°C° 0 mm 3 mps 752 mmHg 56%
    18:00 +19°C° 0 mm 3 mps 752 mmHg 64%
    19:00 +18°C° 0 mm 2 mps 752 mmHg 71%
    20:00 +17°C° 0 mm 2 mps 752 mmHg 77%
    21:00 +16°C° 0 mm 2 mps 753 mmHg 84%
    22:00 +15°C° 0 mm 1 mps 753 mmHg 91%
    23:00 +15°C° 0 mm 2 mps 753 mmHg 92%

    31 May, Friday

    Time Temperature Precipitation Wind Pressure Humidity
    00:00 +15°C° 0 mm 2 mps 753 mmHg 94%
    01:00 +15°C° 0 mm 2 mps 753 mmHg 96%
    02:00 +15°C° 0 mm 2 mps 753 mmHg 96%
    03:00 +14°C° 0 mm 2 mps 752 mmHg 96%
    04:00 +14°C° 0 mm 2 mps 752 mmHg 97%
    05:00 +15°C° 0 mm 2 mps 753 mmHg 92%
    06:00 +17°C° 0 mm 2 mps 753 mmHg 86%
    07:00 +19°C° 0 mm 1 mps 754 mmHg 81%
    08:00 +19°C° 0 mm 2 mps 754 mmHg 73%
    09:00 +21°C° 0 mm 2 mps 754 mmHg 64%
    10:00 +23°C° 0 mm 2 mps 754 mmHg 55%
    11:00 +24°C° 0 mm 3 mps 754 mmHg 53%
    12:00 +24°C° 0 mm 3 mps 754 mmHg 51%
    13:00 +25°C° 0 mm 3 mps 754 mmHg 49%
    14:00 +24°C° 0 mm 3 mps 754 mmHg 50%
    15:00 +24°C° 0 mm 3 mps 753 mmHg 51%
    16:00 +22°C° 0 mm 3 mps 753 mmHg 52%
    17:00 +21°C° 0 mm 2 mps 753 mmHg 59%
    18:00 +20°C° 0 mm 2 mps 753 mmHg 66%
    19:00 +19°C° 0 mm 1 mps 753 mmHg 73%
    20:00 +18°C° 0 mm 1 mps 753 mmHg 76%
    21:00 +16°C° 0 mm 1 mps 754 mmHg 80%
    22:00 +16°C° 0 mm 1 mps 754 mmHg 83%
    23:00 +15°C° 0 mm 1 mps 754 mmHg 82%
    Show more